Visibility
15.0 15.0 15.0 15.0 15.0 15.0 15.0 15.0 15.0 15.0 15.0 15.0 15.0 15.0 15.0 15.0 15.0 15.0 15.0 15.0 14.2 9.3
15.0 15.0 15.0 15.0 15.0 15.0 15.0 15.0 15.0 15.0 15.0 15.0 15.0 15.0 15.0 15.0 15.0 15.0 15.0 15.0 15.0 15.0
15.0 15.0 15.0 15.0 15.0 15.0 15.0 15.0 15.0 15.0 15.0 15.0 15.0 15.0 15.0 15.0 15.0 15.0 15.0 15.0 10.2 8.0
15.0 15.0 15.0 15.0 15.0 15.0 15.0 15.0 15.0 15.0 15.0 15.0 15.0 15.0 15.0 15.0 14.0 5.1 3.3 0.1 0.1 1.1
15.0 15.0 15.0 15.0 15.0 15.0 15.0 15.0 15.0 15.0 15.0 15.0 15.0 15.0 15.0 8.3 0.2 0.1 0.1 0.1 0.1 0.6
15.0 15.0 15.0 15.0 15.0 15.0 15.0 15.0 15.0 15.0 15.0 15.0 15.0 15.0 9.5 12.8 0.6 0.2 4.6 15.0 2.2 2.3
13.8 15.0 15.0 15.0 15.0 15.0 15.0 15.0 15.0 15.0 15.0 15.0 14.9 12.7 12.2 3.5 1.6 11.8 12.9 15.0 15.0 15.0
15.0 15.0 15.0 15.0 15.0 14.0 13.7 15.0 15.0 15.0 12.5 13.6 11.1 5.2 0.2 0.3 0.2 0.2 0.1 4.9 15.0 15.0
15.0 15.0 15.0 15.0 14.5 14.1 14.9 9.0 15.0 15.0 8.9 0.1 0.1 0.1 0.1 0.2 0.2 14.4 0.3 0.2 15.0 15.0
15.0 15.0 15.0 15.0 0.4 0.1 0.2 0.1 0.1 0.1 0.1 0.1 0.1 0.1 0.2 2.5 15.0 15.0 15.0 14.1 15.0 15.0
15.0 14.0 0.2 0.1 0.0 0.1 0.1 0.1 0.1 0.1 0.2 0.2 0.1 1.1 15.0 15.0 15.0 15.0 15.0 15.0 14.3 15.0
3.2 0.1 0.1 0.1 0.1 0.1 0.1 0.2 0.4 8.8 14.6 0.2 0.3 11.9 14.4 13.3 15.0 14.8 15.0 15.0 15.0 15.0
15.0 0.3 0.1 0.1 0.1 3.6 15.0 15.0 15.0 0.8 15.0 10.9 8.3 11.0 13.9 15.0 15.0 15.0 15.0 15.0 15.0 7.7
15.0 15.0 15.0 8.3 15.0 15.0 15.0 15.0 15.0 14.2 13.7 14.5 14.6 13.4 15.0 15.0 15.0 15.0 15.0 15.0 15.0 15.0